TimeEST,TemperatureF,Dew PointF,Humidity,Sea Level PressureIn,VisibilityMPH,Wind Direction,Wind SpeedMPH,Gust SpeedMPH,PrecipitationIn,Events,Conditions,WindDirDegrees,DateUTC
12:23 AM,32.0,26.6,80,29.68,6.0,West,12.7,21.9,0.00,Snow,Light Snow,270,2013-02-28 05:23:00
12:32 AM,32.0,26.6,80,29.68,2.5,West,12.7,17.3,0.00,Snow,Light Snow,280,2013-02-28 05:32:00
12:52 AM,32.0,27.0,82,29.71,2.0,WNW,9.2,19.6,0.01,Snow,Light Snow,290,2013-02-28 05:52:00
1:12 AM,30.2,26.6,86,29.68,3.0,West,20.7,28.8,0.00,Snow,Light Snow,280,2013-02-28 06:12:00
1:37 AM,30.2,24.8,80,29.68,9.0,WNW,17.3,26.5,0.00,Snow,Light Snow,290,2013-02-28 06:37:00
1:52 AM,30.9,24.1,76,29.70,8.0,WNW,13.8,23.0,0.00,Snow,Light Snow,290,2013-02-28 06:52:00
2:02 AM,30.2,24.8,80,29.67,7.0,West,10.4,-,0.00,Snow,Light Snow,270,2013-02-28 07:02:00
2:49 AM,30.2,23.0,75,29.66,10.0,West,15.0,23.0,0.00,,Overcast,280,2013-02-28 07:49:00
2:52 AM,30.9,23.0,72,29.69,10.0,West,13.8,23.0,0.00,,Overcast,280,2013-02-28 07:52:00
3:42 AM,30.2,24.8,80,29.66,5.0,Variable,6.9,20.7,0.00,Snow,Light Snow,0,2013-02-28 08:42:00
3:52 AM,30.0,24.1,79,29.68,5.0,WNW,10.4,-,0.00,Snow,Light Snow,290,2013-02-28 08:52:00
4:52 AM,30.0,25.0,82,29.68,7.0,West,16.1,21.9,0.00,Snow,Light Snow,280,2013-02-28 09:52:00
5:52 AM,30.0,24.1,79,29.69,5.0,WNW,10.4,19.6,0.00,Snow,Light Snow,290,2013-02-28 10:52:00
6:52 AM,30.0,23.0,75,29.70,8.0,West,16.1,25.3,0.00,Snow,Light Snow,280,2013-02-28 11:52:00
7:02 AM,28.4,21.2,74,29.67,3.0,WNW,16.1,27.6,0.00,Snow,Light Snow,290,2013-02-28 12:02:00
7:09 AM,28.4,21.2,74,29.67,2.0,WNW,18.4,27.6,0.00,Snow,Light Snow,290,2013-02-28 12:09:00
7:31 AM,28.4,23.0,80,29.67,2.5,West,11.5,20.7,0.00,Snow,Light Snow,280,2013-02-28 12:31:00
7:42 AM,28.4,23.0,80,29.68,6.0,WNW,12.7,23.0,0.00,Snow,Light Snow,290,2013-02-28 12:42:00
7:52 AM,28.9,23.0,78,29.72,5.0,WNW,13.8,24.2,0.00,Snow,Light Snow,290,2013-02-28 12:52:00
8:27 AM,28.4,21.2,74,29.69,1.8,West,15.0,24.2,0.00,Snow,Light Snow,280,2013-02-28 13:27:00
8:52 AM,28.9,23.0,78,29.74,2.5,West,12.7,24.2,0.00,Snow,Light Snow,270,2013-02-28 13:52:00
9:07 AM,28.4,21.2,74,29.70,3.0,West,9.2,20.7,0.00,Snow,Light Snow,280,2013-02-28 14:07:00
9:33 AM,30.2,21.2,69,29.70,4.0,West,20.7,28.8,0.00,Snow,Light Snow,280,2013-02-28 14:33:00
9:52 AM,28.9,19.9,69,29.74,6.0,West,20.7,28.8,0.00,Snow,Light Snow,280,2013-02-28 14:52:00
10:52 AM,28.9,21.0,72,29.76,7.0,West,15.0,23.0,0.00,Snow,Light Snow,280,2013-02-28 15:52:00
11:52 AM,30.0,19.9,66,29.76,10.0,West,13.8,25.3,0.00,,Overcast,270,2013-02-28 16:52:00
12:52 PM,30.0,21.0,69,29.77,10.0,WNW,9.2,19.6,N/A,,Overcast,290,2013-02-28 17:52:00
1:52 PM,30.0,21.0,69,29.77,10.0,WNW,10.4,25.3,N/A,,Overcast,290,2013-02-28 18:52:00
2:30 PM,30.2,21.2,69,29.72,10.0,West,9.2,21.9,N/A,,Overcast,280,2013-02-28 19:30:00
2:52 PM,30.0,21.9,72,29.77,10.0,WNW,9.2,16.1,N/A,,Overcast,290,2013-02-28 19:52:00
4:52 PM,28.9,23.0,78,29.80,10.0,WNW,17.3,25.3,N/A,,Overcast,290,2013-02-28 21:52:00
5:52 PM,28.9,24.1,82,29.83,8.0,WNW,11.5,23.0,N/A,,Overcast,300,2013-02-28 22:52:00
6:44 PM,28.4,24.8,86,29.80,5.0,West,11.5,26.5,0.00,Rain,Light Freezing Rain,280,2013-02-28 23:44:00
6:52 PM,28.9,25.0,85,29.85,5.0,WNW,13.8,23.0,0.00,Rain,Light Freezing Rain,290,2013-02-28 23:52:00
7:52 PM,28.9,25.0,85,29.86,6.0,WNW,13.8,23.0,0.00,Rain,Light Freezing Rain,290,2013-03-01 00:52:00
8:52 PM,28.9,25.0,85,29.86,7.0,WNW,11.5,19.6,0.00,Rain,Light Freezing Rain,290,2013-03-01 01:52:00
9:52 PM,28.9,25.0,85,29.87,7.0,WNW,11.5,19.6,0.00,Rain,Light Freezing Rain,290,2013-03-01 02:52:00
10:49 PM,30.2,26.6,86,29.81,5.0,WNW,13.8,20.7,0.00,Rain,Light Freezing Rain,290,2013-03-01 03:49:00
10:52 PM,30.0,25.0,82,29.87,5.0,West,6.9,20.7,0.00,Rain,Light Freezing Rain,280,2013-03-01 03:52:00
11:02 PM,30.2,24.8,80,29.82,5.0,West,13.8,-,0.00,Rain,Light Freezing Rain,280,2013-03-01 04:02:00
11:24 PM,28.4,26.6,93,29.82,4.0,WNW,11.5,-,0.00,Rain,Light Freezing Rain,290,2013-03-01 04:24:00
11:52 PM,30.0,26.1,85,29.87,4.0,WNW,10.4,18.4,0.00,Rain,Light Freezing Rain,290,2013-03-01 04:52:00